STARLINK-37653, 69140

Orbit data source: Space-Track

STARLINK-37653, 69140 is a payload satellite owned by SpaceX/Seattle (US) in SSO that was launched on Wed, 20 May 2026 UTC via an FALCON 9 launch vehicle from the Air Force Western Test Range (AFWTR). Payload-class satellites include a variety of spacecraft equipped with specific instruments for various scientific and technological missions. These include communications satellites like Starlink; space stations such as the ISS; scientific satellites like the Hubble; Earth observation satellites from companies like Planet Labs, Umbra, and HawkEye 360; GPS; miniature CubeSats for education and research; and military/defense satellites.

Loading next visibility...
Identifier
69140, 2026-110S
Orbit
SSO
Country
Flag of USUS
Related business
Manufacturer
SpaceX/Seattle
Mission
Operational spacecraft
Bus & Motor
STARLINK V2MO, Unknown motor
Mass
575 kg wet, ~530 kg dry
Launch date (UTC)
2026-05-20 (1 month ago)
Launch vehicle
FALCON 9
Launch site
Air Force Western Test Range (AFWTR)
Object type
Payload
Rocket body
Debris
Shape & HBR
Unknown shape, 14.5 m
Radar Cross Section
Large (>1 m²)

Expand to show TLE details & history
Last TLE update: 12 hours ago

TLE from 12 hours ago
0 STARLINK-37653
1 69140U 26110S   26171.34768750  .00052861  00000-0  10029-2 0  9993
2 69140  97.2843   7.7148 0001281 163.1688 196.9606 15.48144008  6094
Epoch: 2026-06-20T08:20Z
TLE epoch observation values (Epoch: 2026-06-20T08:20:40.200Z)
Latitude
0.00007°
Longitude
-26.01632°
Altitude
426.121 km
Speed
7.655 km/s
True Right ascension
00h 30m 51s
True Declination
0° 00' 00"
Sunlit
Object was in daylight at epoch
Visualization orbit readout
Latitude
Unknown
Longitude
Unknown
Altitude
Unknown
Speed
Unknown
Apparent Right ascension
Unknown
Apparent Declination
Unknown
Sunlit
N/A
Visualization observer readout
Local Sidereal Time
07:13:09
Azimuth
Unknown
Elevation
Unknown
Doppler factor
Unknown
Orbital elements
Apogee altitude
419.95 km
Perigee altitude
418.208 km
Semi-major axis
6,797.216 km
Eccentricity
0.00013
Inclination
97.2843°
RAAN
7.7148°
Arg. of periapsis
163.1688°
True anomaly
196.95632°
Mean anomaly
196.9606°
Eccentric anomaly
196.95846°
Mean motion
3.87299 °/min
Orbital period
92.95 mins
BSTAR
0.0010029
Loading maneuver chart data...
Computing Atmospheric mass density...
Loading historical data...
Loading historical data...
Loading historical data...
Loading historical data...
Loading historical data...
Loading historical data...
Loading historical data...

Documentation

Showing up to 5 results
|